Theta_e
313 309 309 309 309 308 306 305 305 303 302 302 301 300 299 298 297 297 297 296 296 296 295 295 295 294 294 293 293 293 293 293 293 292 292 292 291 291 290 289 289 289 289 289 288 288 288 288 288 288 288 287 287 287 287 288 288 288 288 288 288 289 289 289 290 290 290 291 291 290 290 290 291 291 292 294 294 294 296 297 298 298 299 299 299
314 310 309 308 307 307 305 304 303 302 301 301 300 299 299 298 297 297 296 296 296 295 295 294 294 294 294 293 293 293 292 292 292 291 292 292 291 290 289 289 289 289 288 288 288 288 288 288 287 287 287 287 287 287 287 287 288 288 288 289 289 289 289 289 289 290 290 291 290 289 290 290 290 292 294 294 294 294 294 295 296 296 296 296 296
313 312 309 306 306 305 303 303 302 302 301 300 300 299 298 298 297 296 296 296 296 295 295 294 294 293 293 293 292 292 292 292 291 291 291 291 291 290 289 289 289 288 288 288 288 288 288 287 287 287 287 287 287 286 287 287 288 288 288 289 289 289 289 288 289 290 290 290 290 290 290 289 291 293 294 293 292 292 292 293 293 294 294 294 295
311 311 309 306 304 303 302 301 301 301 300 299 299 299 298 297 297 296 296 295 295 295 294 294 294 293 293 293 293 292 292 292 292 291 291 291 290 289 288 288 288 288 288 288 288 288 288 287 287 287 287 287 286 286 286 287 287 287 288 289 289 289 288 288 288 289 289 290 290 290 290 290 291 291 291 290 290 292 293 293 293 293 294 294 295
311 309 308 306 303 301 301 301 300 300 299 299 299 298 298 297 297 296 296 295 295 295 294 294 293 294 294 294 293 293 292 292 292 292 291 290 289 288 288 288 288 288 288 288 288 288 288 287 287 287 287 286 286 286 286 286 287 287 287 288 288 288 288 288 288 287 288 289 290 290 290 290 290 289 289 290 290 291 292 292 292 293 293 293 294
311 308 306 305 303 300 300 300 300 299 299 299 298 298 298 297 297 296 296 295 295 294 294 294 294 294 294 294 293 292 291 292 292 292 291 290 288 288 288 288 288 288 288 288 288 287 287 287 287 287 286 286 285 285 286 286 286 286 286 287 288 288 288 288 288 287 287 289 289 290 290 290 289 289 290 290 290 290 290 291 291 292 293 293 293
311 308 306 304 302 300 299 299 299 299 299 298 298 298 298 297 297 296 295 295 294 294 294 294 294 294 294 293 293 292 291 291 292 291 291 289 288 289 289 289 288 288 288 287 287 287 287 287 287 287 286 286 285 285 285 285 285 285 286 287 287 287 287 287 287 286 287 288 288 289 289 289 289 290 290 290 290 290 290 290 290 291 292 292 293
312 309 305 304 303 301 299 298 298 299 298 298 298 298 297 297 297 296 295 295 294 294 294 294 294 294 293 293 293 292 292 291 291 290 290 289 289 289 289 289 288 287 287 287 287 287 287 287 287 286 286 285 285 284 284 284 285 285 285 286 286 286 286 286 286 286 287 287 287 287 288 288 288 289 289 290 290 289 289 289 290 290 290 291 292
312 310 306 304 302 300 299 299 298 298 298 298 297 297 297 297 296 296 295 295 294 294 294 294 294 294 293 293 292 292 291 291 290 290 291 290 290 290 289 288 288 287 287 287 287 286 286 286 286 286 286 285 284 284 284 284 284 284 285 285 285 285 285 286 286 286 286 286 286 286 287 287 287 288 288 288 289 289 289 289 289 289 289 289 290
312 310 307 304 302 300 300 299 298 298 298 297 297 297 297 296 296 296 295 295 294 294 294 294 293 293 293 292 292 291 291 291 291 291 291 290 290 289 288 288 287 287 286 286 286 286 286 286 286 286 285 284 284 283 283 283 284 284 284 284 284 285 285 285 285 285 285 285 285 286 286 286 286 286 287 287 288 288 288 288 288 288 288 288 288
312 310 308 305 301 300 300 299 298 298 297 297 297 296 296 296 296 295 295 294 294 294 294 293 293 293 292 292 291 291 291 291 291 290 290 290 289 288 288 287 287 287 286 286 286 286 286 286 286 285 285 284 283 283 283 283 283 283 284 284 284 284 284 284 285 285 285 285 285 285 285 285 285 286 286 286 286 287 287 287 287 287 287 287 288
312 311 308 306 302 301 299 298 298 297 297 297 296 296 296 296 296 295 295 294 294 294 293 293 293 292 292 292 291 292 292 291 291 290 290 289 288 288 287 287 287 287 286 286 286 286 286 286 285 285 284 283 283 282 283 283 283 283 283 283 283 283 283 284 284 284 284 284 284 284 284 285 285 285 285 285 286 286 286 286 286 286 287 287 287
312 311 309 306 304 302 299 298 297 297 297 297 296 296 296 295 295 295 295 294 294 294 293 293 292 292 292 292 291 292 292 291 291 290 290 289 288 288 287 287 287 287 286 286 286 285 285 285 285 284 284 283 282 282 282 282 283 283 283 283 283 283 283 283 283 283 283 283 284 284 284 284 284 284 284 284 285 285 285 285 285 286 286 286 287
311 310 309 306 304 302 299 297 297 297 297 296 296 296 296 295 295 295 295 294 294 294 293 293 292 292 292 291 291 291 291 291 290 290 289 289 288 288 288 287 287 287 286 286 286 285 285 285 285 284 283 282 282 281 281 281 282 282 282 282 282 282 283 283 283 283 283 283 283 283 283 283 283 283 283 284 284 284 284 284 285 285 285 286 286
311 309 308 306 303 301 299 297 297 296 297 297 296 296 296 295 295 295 295 294 294 293 293 292 292 292 291 291 291 291 290 290 290 289 289 289 288 288 288 287 287 287 286 286 285 285 285 285 284 283 282 281 281 281 281 281 281 282 282 282 282 282 282 283 283 283 283 282 282 282 282 282 282 283 283 283 283 283 284 284 284 285 285 285 285
311 310 307 307 304 300 297 297 296 296 296 296 296 296 296 295 295 295 295 294 294 293 293 292 292 291 291 291 291 291 290 290 289 289 289 288 288 288 287 287 286 286 286 286 285 285 285 284 283 282 281 281 280 280 281 281 281 281 281 282 282 282 282 282 282 282 282 282 282 282 282 282 282 282 282 282 283 283 283 283 284 284 284 285 285
311 310 308 307 306 301 297 297 297 296 296 297 296 297 296 296 295 295 295 294 294 293 293 292 292 291 291 291 291 290 290 290 289 289 288 288 288 288 287 287 286 286 286 285 285 285 284 283 283 282 281 281 280 280 280 280 281 281 281 281 281 281 282 282 282 282 282 282 282 282 282 282 282 282 282 282 282 282 282 283 283 283 284 284 284
310 310 309 307 307 303 298 296 297 296 296 296 296 297 296 296 296 295 295 294 294 293 292 292 291 291 291 290 290 290 290 289 289 288 288 288 287 287 287 286 286 285 285 285 285 285 284 283 282 281 281 280 280 280 280 280 280 280 280 280 280 281 281 281 281 281 281 281 281 281 281 281 281 281 281 281 281 281 282 282 282 282 283 283 283
310 309 309 307 306 304 298 296 297 297 297 297 296 297 296 296 296 295 295 294 294 293 292 292 291 291 290 290 290 289 289 289 288 288 288 287 287 286 286 286 286 285 285 285 285 285 284 283 282 281 280 280 280 280 280 279 279 279 279 280 280 280 280 281 281 281 281 281 281 281 281 281 281 281 281 281 281 281 281 281 281 281 281 282 282
312 309 307 306 306 303 298 297 297 297 297 297 296 296 296 296 296 295 295 294 293 293 292 291 291 290 290 289 289 289 289 288 288 287 287 287 287 286 286 286 285 285 285 285 285 285 284 282 281 281 280 280 280 279 279 279 279 279 279 279 279 279 280 280 280 280 280 280 280 280 280 280 280 280 280 280 280 279 279 279 279 280 280 281 282
316 310 307 305 304 301 297 297 298 297 297 297 296 296 296 296 295 295 294 294 293 293 292 291 291 290 289 289 289 288 288 288 287 287 287 286 286 286 286 285 285 285 285 285 285 284 282 281 281 280 280 280 279 279 279 279 279 279 278 278 279 279 279 279 279 279 279 279 279 279 279 279 278 278 278 278 278 277 277 277 278 278 279 280 281
320 315 309 306 305 302 298 297 297 296 296 296 295 296 296 295 295 294 294 293 293 292 291 291 290 289 289 289 288 288 287 287 286 286 286 286 285 285 285 285 284 285 285 285 284 283 281 281 280 280 279 279 279 279 278 278 278 278 278 278 278 278 277 277 277 277 277 277 277 277 277 277 276 276 276 275 275 275 275 275 275 276 277 278 278
325 321 313 308 306 302 298 296 296 296 296 295 295 295 295 295 294 294 293 293 292 292 291 290 290 289 289 288 287 287 286 286 286 285 285 285 285 285 284 284 284 284 284 284 283 282 281 280 280 279 279 279 278 278 278 278 277 277 277 277 277 277 276 276 275 275 275 275 275 275 275 274 274 274 274 273 273 273 273 273 273 274 275 275 275
327 324 316 310 306 302 300 299 297 295 295 295 294 294 294 294 294 293 293 292 292 291 290 290 289 289 288 287 287 286 286 285 285 285 284 284 284 284 284 284 284 284 283 283 281 281 280 280 279 279 278 278 278 278 278 277 277 276 276 276 276 275 275 274 274 274 274 273 273 273 273 273 272 272 272 272 272 272 272 272 272 273 273 273 274
326 323 316 311 307 303 302 301 297 294 294 295 294 294 294 294 294 293 293 292 291 290 290 289 289 288 287 287 286 285 285 285 284 284 284 284 284 284 284 284 284 283 282 281 280 280 279 279 279 278 278 278 277 277 277 276 276 276 275 275 274 274 273 273 273 273 272 272 272 272 271 271 271 271 271 271 271 271 271 271 271 272 272 272 273
324 321 315 311 309 305 302 301 297 294 294 294 294 294 294 293 293 293 292 292 291 290 290 289 288 287 287 286 285 285 285 284 284 284 283 283 283 283 283 283 283 282 282 281 280 279 279 278 278 278 277 277 277 276 276 276 275 275 274 273 273 273 272 272 272 271 271 271 271 271 271 271 271 271 271 271 271 271 271 271 271 271 271 272 272
321 321 316 311 309 306 303 302 298 294 294 294 294 294 293 293 293 292 292 292 291 290 289 288 288 287 286 286 285 285 284 284 283 283 283 283 283 283 283 283 282 282 281 280 279 279 278 278 277 277 277 276 276 275 275 275 274 273 273 272 272 272 271 271 271 271 271 271 271 271 271 271 271 271 271 271 271 271 271 271 271 271 271 271 271
318 318 317 314 310 307 306 304 300 295 294 294 294 293 293 293 293 292 292 291 290 290 289 288 287 286 286 285 285 284 284 283 283 283 282 282 282 283 283 282 281 281 280 279 279 278 277 277 277 276 276 275 275 275 275 274 273 273 272 272 271 271 271 271 271 271 271 271 271 271 271 272 272 272 272 271 271 271 271 271 271 271 271 271 271
317 316 316 314 312 309 307 305 301 296 294 293 293 293 293 293 292 292 291 291 290 289 288 287 287 286 286 285 284 284 283 283 282 282 282 282 282 282 282 281 280 280 279 278 278 277 277 276 276 276 275 274 274 275 274 273 273 272 272 271 271 271 271 271 271 271 272 272 272 272 272 272 272 272 273 273 273 273 273 273 273 272 272 271 271
318 316 315 314 312 310 308 305 302 299 296 293 293 293 292 292 292 291 291 290 290 288 288 287 286 286 285 285 284 283 283 282 282 282 281 281 281 281 280 280 279 278 278 277 277 276 276 276 276 275 274 274 274 275 274 273 273 272 272 271 271 272 271 272 272 272 272 272 272 272 272 273 273 273 274 274 274 275 275 275 274 274 274 273 273
316 314 314 313 312 311 308 305 304 301 296 293 293 293 292 292 291 291 291 290 289 288 287 286 286 285 285 284 283 283 282 282 281 281 280 280 280 280 279 279 278 277 277 277 276 276 276 276 275 274 274 274 274 274 274 273 273 274 273 273 272 272 272 272 273 273 273 273 273 273 273 273 273 273 273 274 274 274 274 275 275 275 275 275 275
313 313 314 314 313 312 309 307 305 301 295 294 294 293 292 292 291 291 290 289 288 287 286 286 286 285 284 284 283 282 281 281 280 280 279 279 279 279 278 277 277 276 276 276 276 276 276 275 275 273 273 274 274 274 273 273 274 274 274 274 273 273 273 273 273 273 273 273 273 273 273 273 273 273 273 273 274 274 274 275 275 275 275 275 275
313 313 313 314 314 313 312 309 306 300 296 295 295 293 292 292 291 290 289 288 287 287 286 286 285 284 284 283 282 281 281 280 279 279 278 278 278 277 277 276 276 276 276 276 275 275 275 274 273 273 273 274 274 273 273 273 274 274 274 274 274 274 274 274 274 273 273 273 273 273 273 273 273 273 274 274 274 274 274 274 274 274 274 275 275
314 313 314 315 314 313 312 308 302 300 298 297 296 294 293 292 291 290 289 287 287 286 285 285 284 283 283 282 281 280 279 278 278 277 277 277 276 276 275 275 275 275 275 275 275 274 274 273 272 272 273 274 274 273 273 273 273 274 274 274 274 274 274 274 273 273 273 273 273 273 273 273 273 274 274 274 274 274 274 274 274 274 274 274 274
313 313 313 314 313 314 315 309 301 300 300 297 295 294 293 292 291 289 288 287 286 285 285 284 283 282 281 281 280 279 278 277 276 276 276 275 275 274 274 274 275 275 275 274 274 274 274 273 272 272 273 273 273 272 272 272 273 274 274 274 275 274 273 273 273 273 273 273 273 273 274 274 274 274 274 275 275 275 276 276 276 275 275 275 275
312 312 313 315 313 311 312 308 302 300 299 296 295 295 293 291 290 288 287 286 285 284 284 283 282 281 280 280 279 278 276 276 275 275 275 274 274 274 274 274 274 274 274 274 274 274 274 273 272 272 272 273 273 272 271 272 273 273 274 274 274 273 273 273 273 273 273 273 273 274 274 274 275 275 275 276 276 276 276 277 276 276 276 276 275
312 312 311 309 307 306 306 304 300 299 298 296 295 293 292 289 287 287 286 285 284 284 283 282 281 280 280 279 278 277 275 275 275 275 274 274 274 274 274 274 274 273 273 273 273 273 273 273 272 271 272 272 272 271 271 271 272 273 274 274 273 273 273 273 273 273 273 274 274 274 275 275 275 276 275 275 276 276 276 276 276 276 276 276 276
313 314 312 307 304 304 304 302 299 296 296 295 294 292 290 287 285 285 285 284 284 283 282 281 280 280 279 278 277 277 276 275 275 275 274 274 273 273 274 274 274 273 273 273 273 273 272 272 271 271 271 271 271 271 270 271 272 273 274 274 273 273 273 273 274 274 274 274 274 275 275 275 275 275 275 275 276 276 276 276 276 276 276 276 276
313 311 311 308 303 300 300 298 295 294 293 293 292 290 288 286 284 284 284 283 283 282 282 281 280 279 278 277 277 276 276 275 274 274 274 274 273 273 273 273 273 273 273 273 272 272 271 271 270 270 270 269 270 270 270 271 272 273 273 274 273 273 274 274 274 274 274 275 275 275 274 274 274 274 274 275 276 276 276 276 276 276 276 276 275
314 308 306 304 301 300 301 297 293 292 292 291 290 289 286 285 284 283 283 283 283 282 281 280 279 278 277 277 276 276 276 275 274 274 274 274 274 273 272 272 272 272 272 272 272 272 271 270 270 269 269 269 269 270 270 271 272 273 273 274 273 274 274 274 274 275 275 275 274 274 273 273 273 273 274 275 276 276 276 276 276 275 275 275 275
311 306 303 299 296 298 300 297 294 293 292 290 289 287 285 284 283 282 282 283 283 282 281 279 278 277 276 276 275 276 276 275 274 274 274 273 273 272 272 272 272 271 271 271 271 271 270 270 269 269 269 269 269 270 270 271 272 272 273 273 274 274 274 274 275 275 274 274 273 273 272 272 272 274 275 275 275 275 275 275 274 274 274 274 275
303 302 299 296 296 296 295 293 293 293 291 289 288 286 285 283 282 282 283 283 282 281 280 278 277 276 276 275 275 275 275 274 273 274 273 271 271 272 272 272 271 271 271 270 270 270 270 269 269 269 269 269 270 270 270 270 271 272 272 273 274 274 275 275 275 274 273 273 272 272 271 272 273 274 274 274 274 274 274 273 273 273 274 274 275
304 303 299 297 300 299 293 291 292 291 290 289 287 285 284 283 282 282 282 282 281 280 278 277 276 275 274 274 273 273 273 273 272 272 272 271 270 271 271 271 271 271 270 269 269 269 269 268 269 269 269 270 270 270 270 270 271 271 272 273 274 274 274 274 274 273 273 272 271 271 272 272 273 273 273 273 273 273 272 271 272 273 273 273 273
305 302 297 296 301 299 292 290 290 289 288 288 287 285 284 282 282 282 282 281 280 278 277 275 275 274 273 273 272 272 271 271 271 271 272 271 269 270 270 270 271 271 270 268 268 268 268 268 269 269 270 270 270 269 269 270 270 271 272 273 274 274 274 274 273 273 272 271 272 272 272 272 272 272 272 272 271 271 271 271 271 272 272 271 271
302 298 295 295 298 296 291 288 288 287 287 287 286 286 284 283 282 282 280 279 278 276 275 274 273 273 272 271 271 270 270 270 270 271 272 270 269 270 269 269 270 270 269 268 268 268 268 269 269 270 270 270 269 269 269 270 271 271 272 273 273 273 273 273 273 272 271 271 272 272 271 271 271 270 270 270 269 269 270 270 270 270 270 270 270
301 298 294 292 293 293 292 291 288 286 286 286 286 286 285 283 282 281 279 278 277 275 274 273 272 271 270 270 269 269 269 269 270 271 273 272 271 271 269 268 269 269 268 269 269 269 269 269 270 270 270 270 269 269 269 270 271 272 272 272 272 272 272 272 272 271 271 272 271 270 269 269 269 269 269 269 268 268 269 269 269 269 269 269 269
302 299 293 290 292 296 298 297 291 285 284 285 285 285 285 283 282 280 278 277 276 274 273 272 271 270 269 268 268 267 267 268 269 270 271 272 272 271 270 269 268 268 268 269 269 269 269 270 270 270 270 270 269 269 270 270 271 272 273 272 272 272 272 271 271 271 271 270 269 268 268 268 267 267 267 267 267 267 267 267 268 268 268 269 269
300 296 292 291 295 298 298 297 292 286 284 284 284 284 284 283 281 279 278 276 275 274 272 271 270 269 268 268 268 267 267 267 268 269 270 270 270 271 270 270 269 269 269 269 269 270 270 270 270 270 270 270 270 270 270 271 272 273 273 273 272 272 272 271 271 271 270 268 267 266 266 266 266 266 266 266 266 266 267 267 267 268 268 268 268
300 295 290 291 295 298 297 295 290 286 285 284 283 283 283 282 280 279 277 275 274 273 272 270 269 268 268 268 267 267 267 267 267 268 269 270 270 270 270 270 270 270 271 270 269 270 270 270 270 270 269 270 270 270 271 272 273 273 273 273 273 272 271 271 271 271 269 266 266 266 265 265 266 266 266 266 266 266 266 267 267 267 268 268 268
299 294 291 289 290 291 292 291 288 286 285 283 282 282 282 281 280 278 277 275 273 272 271 269 268 268 268 267 267 267 267 267 268 268 268 268 269 270 270 270 270 270 270 271 270 270 270 270 269 270 270 270 270 271 272 273 272 272 272 272 272 271 271 271 271 269 267 266 265 265 265 265 265 265 265 265 265 266 266 266 267 267 267 268 268
297 296 296 295 290 287 288 288 287 286 284 282 281 281 281 279 278 277 276 275 273 271 270 269 268 269 268 267 267 267 267 267 268 268 268 268 268 269 270 270 270 270 270 271 271 271 271 270 269 270 270 270 271 272 272 272 272 272 272 272 271 271 271 270 269 268 266 265 265 264 264 265 265 265 265 265 265 265 266 266 266 267 267 267 267
Wind_Speed
9 18 25 27 27 26 26 27 28 29 29 30 32 32 32 33 33 33 32 33 33 32 31 31 30 28 27 27 26 25 24 22 20 18 18 17 17 15 12 10 9 7 6 5 4 3 3 3 5 6 8 9 10 10 10 10 10 12 12 12 12 14 17 16 15 18 21 21 21 24 29 25 22 27 26 22 21 20 18 19 20 20 20 20 23
9 13 18 22 24 25 26 27 29 30 29 30 33 33 32 34 34 34 34 34 35 35 34 33 33 32 30 30 28 26 25 24 23 20 19 19 18 15 12 12 10 8 7 6 4 3 3 3 4 5 7 8 9 10 10 11 11 10 10 11 11 12 16 17 15 15 14 15 17 18 21 21 21 23 15 13 17 20 23 24 24 25 26 26 26
10 10 12 17 22 25 26 27 29 31 30 31 33 33 33 34 35 35 35 36 35 35 35 33 32 31 29 28 27 26 23 22 22 21 21 20 18 15 13 12 11 10 9 7 5 4 4 3 4 5 7 8 9 10 10 10 10 9 8 10 12 13 15 15 13 11 13 17 15 9 8 11 15 12 8 15 25 27 27 24 21 22 23 22 23
10 10 10 13 18 23 24 26 28 29 29 31 33 34 34 35 37 37 37 37 35 35 35 32 30 27 25 24 25 25 23 21 21 21 22 21 18 16 14 13 12 11 10 7 6 5 4 4 5 6 7 8 9 9 10 10 10 8 7 8 11 14 16 15 12 11 13 13 9 5 6 6 6 6 12 24 26 20 18 17 18 21 22 23 24
11 11 11 11 14 19 24 27 28 30 31 33 35 36 35 36 38 38 38 37 35 35 34 32 30 28 26 25 25 23 23 23 24 23 23 21 19 18 16 15 14 12 10 8 7 6 5 5 5 6 7 8 9 9 10 10 9 8 8 9 12 13 15 16 15 13 11 10 8 6 5 4 4 8 15 16 13 15 20 21 22 22 22 23 24
11 12 13 12 12 16 22 26 28 30 32 34 36 36 35 36 37 37 37 36 35 34 34 34 34 34 33 32 30 27 25 26 29 29 27 24 20 18 17 16 16 13 11 9 8 7 6 6 6 7 7 8 9 9 10 10 10 9 9 10 12 12 13 15 17 15 12 11 12 12 11 10 10 11 9 7 13 19 18 17 19 20 21 23 24
10 11 12 12 12 14 19 26 30 31 32 34 34 35 35 35 36 37 36 36 35 35 36 37 37 37 37 36 35 33 30 30 31 30 27 24 21 19 19 18 16 14 12 10 9 8 7 6 7 7 8 9 9 10 11 11 10 10 9 10 12 13 13 14 16 16 13 12 12 14 17 19 19 16 8 7 13 15 12 14 18 19 21 25 27
11 10 12 13 14 16 20 26 31 31 32 33 34 35 35 35 36 36 36 36 36 37 38 38 38 38 37 35 34 33 31 30 29 26 24 23 22 22 21 19 17 14 12 12 10 9 7 7 8 8 9 9 10 11 12 11 10 10 10 11 13 13 13 14 15 14 13 14 14 15 17 18 20 19 17 13 9 10 16 18 18 17 20 25 27
12 12 13 14 14 19 23 27 29 30 32 34 36 36 35 35 36 36 36 36 37 38 39 39 39 38 38 35 32 31 29 27 27 26 25 25 25 24 22 19 17 15 13 12 11 10 8 8 9 9 9 10 11 12 11 10 10 11 12 13 13 13 12 12 14 15 14 15 15 16 16 17 18 19 21 19 12 10 13 14 16 18 19 23 26
10 11 12 13 16 21 24 25 27 30 33 35 35 35 35 35 36 37 37 38 38 40 41 40 39 38 38 37 33 31 28 28 29 29 28 28 27 25 22 20 18 16 15 14 12 11 10 10 10 10 10 10 11 11 10 10 11 12 12 12 12 12 12 13 14 15 14 15 15 15 16 16 15 13 14 16 13 10 11 12 16 18 16 21 26
8 9 10 11 15 20 23 24 27 29 31 33 34 35 36 36 38 38 38 38 39 41 42 41 40 40 40 39 37 34 33 33 33 32 30 29 28 26 24 21 19 17 16 15 13 12 11 10 10 10 10 10 11 11 11 11 11 11 11 11 12 12 13 13 14 15 14 15 15 15 17 16 14 13 14 16 12 8 10 11 16 22 22 24 27
9 9 8 9 11 16 19 22 25 28 29 32 35 36 37 37 38 37 37 38 39 41 43 42 41 40 40 39 38 37 37 37 36 35 34 32 30 27 24 21 19 18 17 16 14 13 12 11 11 11 11 11 10 10 9 9 10 11 12 13 14 13 13 13 14 15 14 15 15 15 16 17 18 19 20 20 17 15 14 9 14 23 22 25 31
9 9 8 10 10 12 14 19 24 27 30 33 35 36 36 37 38 38 38 39 39 41 42 42 42 40 38 38 37 37 37 37 36 36 35 34 32 29 26 24 22 21 20 18 16 14 12 12 11 12 11 11 10 10 10 11 12 14 15 14 14 14 13 13 14 15 15 16 17 17 18 19 20 22 21 22 21 21 18 11 17 23 17 22 34
9 9 9 10 11 11 13 18 23 26 30 33 34 36 36 36 38 38 38 39 39 40 41 41 41 40 38 38 37 37 37 37 36 35 35 34 32 30 28 27 26 24 22 19 17 15 13 13 13 13 13 12 12 12 12 13 14 14 14 14 14 14 13 14 15 16 16 17 18 19 21 21 22 23 22 23 22 22 20 15 15 20 18 20 28
7 9 10 10 12 12 13 18 23 26 30 32 34 35 35 36 38 39 38 39 40 40 40 41 41 40 38 38 38 38 38 37 36 35 35 34 32 31 29 28 26 24 21 19 17 16 15 15 15 15 15 14 13 13 12 12 13 13 13 13 14 13 13 14 15 16 17 19 20 21 22 23 24 24 23 24 23 23 23 22 17 13 15 16 17
8 8 9 10 11 11 14 19 23 27 30 32 34 35 36 37 38 40 40 39 40 40 40 40 40 39 39 38 39 38 37 37 36 35 35 34 33 32 30 28 26 24 22 21 20 19 17 16 16 16 15 14 13 12 12 12 12 13 13 13 14 13 13 15 16 17 19 20 21 22 23 25 25 25 24 24 25 25 25 27 24 15 12 12 12
8 9 10 11 11 12 16 21 24 27 30 33 36 38 39 39 39 39 38 37 39 40 40 39 39 39 39 40 40 40 39 39 38 37 36 34 33 32 30 29 27 26 24 23 21 19 18 17 17 16 15 14 13 12 12 13 13 13 13 14 14 13 14 16 17 19 20 22 22 23 24 25 25 24 24 24 24 26 26 26 26 23 18 12 10
9 9 9 10 11 12 16 22 26 29 30 33 36 37 39 39 39 38 38 38 40 41 40 40 40 40 41 41 41 41 41 40 39 39 37 36 34 32 31 30 29 27 25 23 21 20 19 18 17 16 15 14 13 13 13 12 12 12 13 13 14 14 15 17 18 20 21 22 23 24 24 26 26 24 24 24 24 25 26 27 26 27 25 19 12
7 8 8 9 11 11 15 20 24 27 28 30 32 34 35 36 37 37 38 38 39 39 39 40 41 41 41 42 42 42 41 41 40 39 38 38 37 35 34 32 30 28 26 24 22 21 20 18 17 16 15 14 14 13 13 12 12 12 13 13 14 14 16 18 19 20 22 22 23 24 24 25 25 24 24 23 24 24 25 26 27 28 29 29 24
8 9 9 11 11 13 18 23 26 28 30 30 32 33 34 34 35 36 37 37 37 39 39 40 41 41 40 40 41 41 41 41 40 40 39 39 38 37 36 34 31 29 27 25 23 21 20 19 17 16 15 15 15 14 13 12 12 12 13 14 14 15 17 19 21 21 21 22 23 24 24 24 23 23 23 22 23 24 24 25 26 27 29 30 30
8 9 10 11 11 11 16 22 24 25 27 29 32 33 34 35 36 38 38 39 40 41 41 41 41 40 40 41 42 42 41 41 40 40 40 39 38 37 36 34 31 29 27 25 23 22 20 18 17 17 17 16 15 14 13 12 13 14 15 15 16 17 19 20 21 22 22 22 23 24 24 24 23 23 24 24 24 23 24 25 24 26 28 27 25
9 10 10 10 10 9 12 17 20 22 25 28 30 32 33 34 36 37 38 40 42 42 42 42 40 40 40 41 41 41 41 40 40 40 39 38 37 36 34 33 31 29 27 25 23 22 20 19 19 18 18 17 16 15 14 14 15 16 16 16 17 18 20 21 21 22 22 21 22 24 24 24 24 25 26 25 26 25 24 25 24 24 26 24 21
9 10 10 10 10 10 12 16 19 22 24 26 29 31 32 34 34 35 36 39 41 42 42 40 39 39 39 38 39 39 40 40 40 40 39 38 37 35 34 32 30 28 26 24 23 22 21 20 19 19 18 17 16 15 14 15 16 17 17 17 18 18 19 21 21 21 21 21 22 24 25 24 22 22 23 23 23 24 24 25 25 24 24 25 25
9 9 9 9 9 9 10 12 14 18 23 27 29 31 32 33 34 35 36 37 37 38 40 40 39 39 38 38 38 39 39 40 40 39 38 38 37 35 33 32 30 27 26 24 23 22 21 20 19 19 18 17 16 15 15 16 16 17 17 17 18 19 20 20 20 20 20 19 20 21 21 20 19 18 19 19 18 19 22 25 26 24 23 26 28
9 8 8 8 9 9 10 10 11 16 22 26 29 31 33 34 36 37 36 35 35 36 38 40 40 39 39 39 39 39 40 41 40 39 38 38 37 35 33 31 29 27 25 24 23 22 21 20 20 19 18 16 16 15 15 16 17 17 17 18 18 19 20 20 19 20 19 18 18 18 18 16 16 17 18 18 19 19 21 23 24 24 23 23 25
9 9 8 9 9 10 11 10 11 16 21 24 27 30 31 32 35 37 36 35 36 37 37 37 38 38 39 39 40 40 41 41 40 39 39 38 37 36 34 32 29 28 26 24 23 22 21 20 19 18 17 16 16 16 16 17 17 17 17 17 18 19 19 19 18 18 19 20 19 17 18 17 17 20 22 21 21 21 21 23 25 25 24 23 24
9 9 9 9 9 10 11 11 11 15 21 23 25 27 29 31 34 36 36 37 38 38 37 37 37 37 38 39 40 41 40 40 39 38 38 38 37 36 34 32 29 28 26 25 23 22 21 19 18 17 16 16 16 16 16 16 16 16 16 16 18 18 18 18 18 17 18 20 20 21 22 23 24 26 28 26 23 22 22 23 24 25 25 25 26
8 9 10 11 11 10 11 11 11 14 19 22 25 28 31 32 34 36 37 38 38 38 38 37 37 36 36 38 38 37 37 37 36 37 37 37 36 36 34 32 29 27 26 24 23 22 20 18 17 16 16 16 16 15 15 15 14 15 15 16 16 16 17 18 18 19 21 22 24 25 26 27 29 30 32 30 27 25 25 24 23 23 24 26 27
10 10 10 10 11 10 11 12 12 13 17 21 25 27 30 31 32 34 36 37 38 38 38 36 36 36 35 34 34 34 34 35 35 36 37 36 36 35 33 31 29 27 25 23 22 20 19 18 17 16 16 16 15 14 13 13 13 13 14 15 15 16 16 18 18 20 22 24 26 28 28 29 30 30 29 29 28 28 28 29 27 24 23 25 27
11 11 11 11 11 11 12 13 12 12 15 19 23 26 29 30 30 33 34 36 37 37 36 35 34 33 32 31 32 33 33 34 35 36 37 36 36 35 33 31 28 26 25 23 21 19 18 17 17 16 16 14 13 12 11 11 12 13 13 13 14 15 16 18 20 22 22 24 25 26 26 26 26 26 26 28 29 30 31 32 32 30 28 27 26
11 12 11 11 11 12 12 12 13 14 16 19 23 25 28 28 29 32 33 35 36 35 34 33 32 31 31 32 34 34 34 35 35 36 36 36 36 35 33 30 28 26 24 22 20 19 17 17 16 15 14 12 11 10 9 11 13 13 13 14 14 16 18 20 21 21 21 22 22 23 23 23 24 26 28 29 29 30 32 33 34 34 33 33 32
11 11 10 11 12 12 13 14 14 14 17 21 23 24 25 27 30 32 32 33 34 33 33 32 32 32 33 35 36 36 36 36 36 37 37 37 36 35 33 30 28 26 23 21 19 18 17 16 15 14 13 12 11 10 9 12 13 13 13 15 16 18 19 20 20 20 21 22 21 22 23 23 25 28 30 30 30 32 34 35 35 35 35 36 36
11 10 10 10 11 10 12 13 13 15 21 27 28 27 28 30 31 31 32 34 34 33 33 32 32 34 35 37 37 38 38 37 37 37 37 37 36 34 32 30 27 25 23 20 19 17 16 15 14 13 12 11 10 10 10 12 13 13 13 14 17 19 20 20 21 20 21 21 21 24 25 25 28 29 30 31 33 35 36 36 36 35 36 37 37
11 10 9 9 9 9 10 11 15 21 27 29 30 29 28 29 30 31 33 34 33 32 32 32 32 34 36 36 37 37 37 36 36 36 36 35 34 32 30 28 26 24 22 20 18 17 16 14 14 13 12 11 11 10 10 11 12 12 12 14 16 19 19 20 20 19 19 21 23 25 26 28 29 30 31 33 34 35 35 34 35 34 36 39 38
11 10 10 10 9 9 9 10 15 21 23 23 26 27 25 27 31 33 34 34 33 31 31 31 32 33 34 35 36 35 35 35 35 36 35 34 32 30 28 26 24 23 22 20 18 17 16 15 14 13 12 12 11 9 9 11 11 11 12 14 16 18 18 19 18 18 20 22 24 27 28 30 32 33 33 32 32 34 34 34 35 34 36 38 38
12 11 12 11 10 10 10 11 13 16 19 22 26 28 27 28 31 33 32 32 31 30 30 31 32 33 35 37 37 37 37 37 38 37 35 34 32 30 28 27 25 23 21 19 18 17 16 15 14 13 13 11 10 9 9 10 11 11 12 14 16 17 17 18 18 19 21 23 25 28 30 32 33 33 32 30 30 33 35 35 36 36 37 38 38
13 12 12 12 11 10 11 12 13 17 21 23 26 28 27 27 27 28 29 29 29 29 30 32 34 36 38 40 42 42 42 42 42 41 39 37 34 32 30 28 26 24 22 21 19 17 15 14 13 13 12 10 9 9 8 9 9 10 11 14 16 17 18 19 20 21 22 24 26 28 29 31 31 31 31 31 31 33 34 34 35 37 39 38 37
12 12 11 11 10 8 10 14 15 17 20 23 26 28 27 25 24 26 27 27 27 29 32 34 36 39 41 43 45 46 46 46 45 44 42 39 36 34 32 30 28 26 24 22 19 17 15 13 12 11 10 10 10 7 6 7 9 10 11 13 15 17 19 20 21 22 23 24 25 27 28 29 30 30 31 32 32 32 34 34 33 34 34 33 33
10 11 11 10 8 8 11 13 14 14 18 22 26 28 26 22 23 26 26 25 27 31 35 37 38 40 42 44 46 48 48 47 45 44 43 40 37 34 32 30 28 26 24 21 18 17 14 12 10 9 9 9 9 6 3 6 9 9 11 13 15 17 19 20 22 22 21 22 24 25 26 26 28 30 31 31 32 33 35 35 33 31 30 30 32
10 12 13 10 11 12 10 11 13 15 20 23 26 26 23 20 23 24 24 26 30 33 35 37 38 40 42 43 45 46 47 46 45 44 42 39 37 34 32 30 27 24 22 20 18 15 13 11 10 9 8 8 8 4 2 5 9 10 10 12 14 18 20 21 21 21 21 22 23 23 23 24 27 30 31 32 34 34 35 35 33 30 28 30 33
6 8 7 7 10 9 8 10 14 17 21 25 27 23 19 20 22 22 25 29 32 33 34 36 37 39 40 41 42 44 45 44 44 44 41 38 36 35 33 30 28 25 22 20 17 14 12 10 9 7 7 7 7 4 3 6 9 9 10 12 15 18 20 20 20 19 20 21 21 22 23 25 27 30 32 34 33 33 33 33 31 30 30 34 37
9 9 5 5 5 4 5 8 14 19 23 27 27 22 19 20 21 22 28 30 31 33 35 37 38 39 39 40 41 42 43 42 42 42 41 37 34 33 32 30 27 25 23 20 17 14 12 10 8 7 7 7 6 5 5 7 7 8 10 12 14 17 18 18 18 19 19 20 20 22 24 26 29 31 32 32 31 32 32 30 29 31 34 36 37
8 8 6 1 2 4 6 10 15 20 24 28 26 21 18 19 20 24 29 31 33 36 37 37 38 38 38 39 40 40 40 40 40 41 40 37 34 32 31 29 28 26 23 19 17 15 12 10 8 8 8 7 7 6 5 6 6 8 10 11 14 15 16 16 17 18 19 19 20 21 23 27 31 31 31 31 30 30 30 28 30 33 34 35 35
5 4 4 4 5 5 5 9 15 19 23 27 27 21 17 18 21 25 30 33 34 37 37 37 38 38 37 38 39 39 39 39 39 40 39 37 34 32 31 28 27 26 23 20 17 15 13 11 10 10 9 9 7 5 4 5 6 7 9 11 13 14 14 15 16 17 18 19 20 22 25 28 29 29 29 30 29 28 28 30 32 34 34 33 31
6 5 4 6 7 5 4 7 13 18 21 25 26 23 18 18 21 27 32 35 36 37 37 37 37 37 38 38 38 38 38 38 39 40 39 37 35 33 31 28 26 25 23 20 17 15 14 13 12 12 11 9 7 4 3 3 4 6 8 10 12 13 14 14 15 17 18 18 20 23 25 26 26 26 28 28 27 27 28 30 32 32 31 30 29
6 5 4 6 6 6 6 7 11 17 21 24 26 25 21 18 22 28 33 35 38 37 35 35 36 36 38 39 38 36 35 35 37 38 38 38 37 34 32 29 26 24 21 19 18 16 14 14 13 13 11 9 6 4 3 3 3 5 8 9 10 12 13 13 14 16 16 18 20 22 22 23 24 25 26 26 26 28 28 29 30 29 29 29 28
7 7 7 7 6 6 8 8 10 17 22 24 26 27 23 19 23 30 33 35 37 36 34 35 35 36 37 39 39 37 34 35 36 36 36 36 36 34 33 31 28 24 20 19 19 17 15 15 15 13 11 9 6 4 4 5 5 6 8 9 10 11 11 11 14 15 15 17 20 20 19 22 23 24 25 25 26 27 28 28 29 28 28 29 28
7 8 9 8 7 8 10 9 10 16 22 24 26 27 24 22 26 32 35 35 35 34 34 34 35 36 37 37 38 38 36 36 36 36 37 37 34 32 31 31 29 27 24 22 20 18 17 17 16 15 12 10 8 6 5 5 5 5 7 8 9 10 10 11 14 15 14 16 19 19 20 23 24 24 25 25 25 27 27 28 28 28 28 29 29
8 9 11 10 9 10 10 10 13 17 21 25 27 27 26 26 30 35 38 37 34 33 33 33 34 35 34 35 35 35 36 38 37 35 34 34 32 31 30 27 25 25 25 24 21 20 19 18 17 15 13 11 10 7 4 3 3 4 6 7 8 8 9 10 12 13 13 16 18 20 22 23 23 23 24 24 25 26 27 27 28 28 29 30 30
9 9 11 11 12 12 11 11 15 18 21 25 27 27 28 30 33 38 41 39 35 32 30 31 33 33 33 34 34 32 35 40 39 35 32 28 24 25 26 26 24 21 19 19 18 18 18 17 16 14 12 11 9 5 2 0 2 3 5 6 7 7 8 9 10 11 13 16 18 19 20 21 21 22 22 23 25 26 26 27 28 29 29 30 30
10 9 9 9 11 12 11 13 16 19 22 25 26 28 30 33 36 41 43 41 38 33 29 30 32 32 34 36 35 33 36 39 39 39 37 32 25 20 19 21 22 21 17 15 14 14 15 15 14 13 11 9 6 3 2 2 2 4 5 6 5 6 7 9 10 12 15 17 17 17 18 19 20 20 21 23 24 25 25 27 28 29 30 31 31
Wind_Direction
174 174 181 187 192 189 184 182 180 178 177 178 178 180 180 179 179 179 179 180 180 179 178 177 176 176 180 182 183 184 185 183 182 183 184 192 202 198 190 197 207 211 215 225 240 264 299 322 334 335 334 332 331 328 320 309 300 298 303 309 315 316 316 317 316 309 302 305 314 316 315 317 320 316 306 298 300 302 298 290 286 287 289 291 294
138 157 172 179 182 180 177 176 174 174 175 177 178 179 181 182 182 181 180 182 185 184 183 183 184 184 185 187 185 184 188 189 185 183 187 195 201 197 193 199 207 213 219 226 238 259 283 308 325 327 326 326 322 316 307 304 302 305 307 308 309 304 301 310 320 314 303 311 319 315 315 319 322 321 314 304 308 307 301 293 288 287 287 289 291
149 154 163 169 170 171 171 173 176 176 177 178 179 181 182 183 184 184 183 185 187 188 187 187 188 190 190 188 186 184 187 193 191 188 191 197 199 197 198 204 209 214 219 225 233 251 270 290 312 317 318 318 313 307 302 297 295 295 295 293 297 294 292 303 318 312 304 314 318 307 314 323 324 334 339 313 306 301 299 296 291 287 287 289 287
162 159 161 162 163 167 169 172 176 177 179 180 181 183 183 185 186 186 187 187 188 189 189 189 186 187 189 186 185 184 182 184 186 187 192 197 198 198 201 207 211 215 220 225 234 249 266 284 304 309 311 310 302 295 287 282 282 286 286 277 280 284 288 295 303 303 303 310 316 304 306 306 303 339 329 309 303 302 302 300 295 291 289 291 288
164 166 166 162 166 172 172 173 175 178 182 184 184 186 185 187 189 189 189 188 188 188 187 186 180 176 175 171 172 173 172 174 176 181 189 194 197 199 202 207 210 215 220 227 238 250 266 282 297 300 301 297 288 280 272 272 273 272 270 266 270 274 280 289 295 305 307 294 286 287 300 299 291 330 325 307 300 303 298 296 295 292 290 291 290
171 172 169 168 172 174 175 176 179 183 187 188 188 188 188 189 190 190 189 188 188 187 185 184 180 177 173 168 167 168 170 178 184 186 190 193 197 200 202 207 210 212 217 227 237 246 260 274 284 289 290 284 275 266 259 259 262 263 261 262 266 267 273 284 291 302 308 289 279 273 266 269 287 314 323 302 303 301 292 296 303 300 297 296 293
178 175 169 169 171 174 180 183 185 188 190 189 189 190 190 190 189 190 189 188 188 186 185 185 182 181 181 179 179 180 180 187 193 195 196 196 197 199 201 206 209 211 217 225 232 239 250 263 274 279 279 274 264 256 253 254 256 259 256 254 259 263 269 278 285 296 302 291 286 280 274 277 286 296 296 296 310 305 292 298 303 301 300 300 296
178 173 172 173 177 182 186 188 189 190 189 188 189 190 191 191 190 190 190 189 188 187 187 188 186 186 187 186 188 189 189 192 194 195 198 196 192 194 199 203 208 211 217 222 227 234 241 251 263 268 268 266 259 253 253 254 254 254 252 250 257 264 270 275 281 289 293 293 293 289 286 288 290 292 292 294 303 304 301 301 300 299 299 300 297
176 172 176 176 183 187 187 188 189 190 189 189 191 191 191 191 190 190 190 190 189 189 189 191 192 192 191 191 192 193 194 193 190 186 187 188 187 190 195 200 205 209 214 219 223 228 234 243 252 257 258 257 254 253 254 253 252 253 254 256 261 265 266 268 274 279 283 287 292 293 294 295 295 293 293 292 286 284 296 303 307 308 301 295 292
175 173 178 179 184 185 184 184 186 189 191 191 191 190 191 190 190 190 191 191 190 191 192 193 195 195 195 195 193 191 189 187 184 180 181 184 185 188 192 197 202 206 211 217 220 223 228 237 243 248 252 251 251 253 255 254 255 258 261 265 266 265 263 262 266 272 274 276 280 286 291 292 294 293 287 290 290 281 285 295 303 307 302 295 293
171 174 176 174 176 176 176 179 184 189 190 190 190 190 190 190 190 191 192 192 192 193 195 195 196 198 198 197 194 189 185 181 179 179 182 185 187 190 193 196 200 205 211 213 216 220 225 232 239 242 246 248 249 252 255 258 260 261 262 261 260 259 261 262 261 262 265 269 269 270 276 279 280 280 279 287 291 282 286 292 295 298 295 292 293
164 169 167 159 165 170 173 178 182 184 186 188 190 190 191 191 191 192 192 194 195 195 196 197 197 200 200 198 195 191 186 184 182 183 185 188 190 191 192 193 195 200 205 209 214 219 223 229 233 237 242 245 250 253 255 257 255 253 253 254 255 255 255 255 255 258 259 263 264 262 268 272 271 272 277 283 283 282 288 289 291 296 296 292 293
162 164 165 163 170 174 175 179 180 182 186 188 190 190 192 193 192 193 194 196 196 196 197 197 198 200 200 198 197 193 191 190 188 188 189 191 190 190 190 190 191 195 200 206 212 218 222 227 230 237 242 243 245 245 245 245 244 247 250 252 253 251 251 251 252 257 256 257 260 261 262 265 265 266 271 277 280 283 285 283 287 291 291 293 295
164 165 170 173 179 180 180 182 181 185 187 188 189 191 192 193 194 195 197 197 197 198 198 198 199 200 199 199 197 196 195 194 193 192 192 192 192 192 193 194 195 198 202 205 209 214 219 226 232 237 239 238 239 240 242 244 244 247 250 251 252 251 251 252 253 255 257 258 260 260 261 261 261 262 265 270 274 277 277 277 287 290 286 288 292
166 169 178 181 182 181 182 183 185 188 188 188 190 191 193 195 196 197 198 198 197 198 199 199 200 199 199 199 198 198 197 196 196 196 196 195 194 194 194 196 198 199 201 201 204 211 217 225 231 234 237 239 240 243 244 243 243 245 248 250 252 253 251 252 253 255 258 261 260 260 261 261 261 262 263 265 268 269 272 274 280 291 291 288 288
169 175 180 182 183 181 185 187 189 190 189 189 191 192 194 197 198 200 199 198 198 198 200 201 200 198 198 199 198 198 197 196 196 196 196 196 196 196 195 196 198 196 196 198 202 209 216 223 229 233 237 240 242 243 240 240 240 241 244 248 252 253 252 252 254 257 259 261 262 261 261 261 263 265 265 266 268 268 270 273 276 278 284 291 293
176 183 181 180 183 184 190 190 190 191 191 192 193 194 196 197 199 200 200 200 199 199 200 201 200 199 198 199 198 198 197 197 196 194 194 195 196 197 196 195 195 195 196 199 204 210 217 223 229 234 239 242 242 240 238 239 240 241 244 249 252 252 250 252 255 258 261 262 263 262 261 262 265 266 266 267 268 270 270 271 272 271 272 279 288
174 184 182 186 188 186 192 193 193 194 193 195 196 196 198 199 199 199 199 200 201 200 200 200 200 199 198 198 198 199 198 197 197 195 194 193 193 194 195 195 196 197 199 203 207 212 219 225 230 234 237 239 240 238 239 240 240 243 248 250 253 252 252 254 257 260 263 263 264 263 263 264 266 266 267 268 269 270 271 271 272 272 271 271 273
173 184 186 193 194 190 192 193 194 195 195 197 198 199 200 201 201 201 201 202 202 200 199 200 201 200 199 199 199 199 198 197 196 195 194 193 193 193 195 197 198 199 202 205 209 214 220 225 228 231 233 234 237 238 238 240 241 246 250 251 253 253 254 257 259 261 262 262 263 264 265 265 268 270 269 269 269 268 270 272 274 272 270 269 267
189 191 197 201 200 199 194 191 191 192 194 196 196 199 201 202 202 201 201 202 202 201 200 200 201 201 200 199 199 198 198 197 195 195 194 194 195 195 196 197 199 200 203 206 211 216 219 222 224 226 228 230 234 237 238 241 245 247 248 250 252 252 252 256 259 260 260 260 262 265 267 268 270 271 270 269 267 268 270 272 273 273 269 265 264
199 194 205 206 205 206 198 194 191 189 191 193 195 198 200 200 201 200 199 199 200 201 200 200 200 200 200 199 198 198 196 195 195 195 195 195 195 196 197 198 198 200 203 207 212 216 217 218 220 223 227 230 234 235 236 240 242 244 245 247 249 250 251 254 257 259 260 261 264 266 268 269 270 270 270 271 271 270 271 271 271 273 271 268 267
204 203 208 203 200 200 193 191 187 186 189 191 194 197 198 199 200 200 200 199 199 199 199 200 199 199 201 200 198 196 195 194 193 193 194 194 194 195 196 196 197 200 204 208 212 214 215 216 219 223 227 230 233 233 235 238 239 242 245 247 249 250 252 255 257 260 262 263 265 267 269 270 271 271 271 272 273 272 270 271 272 273 274 274 274
208 205 205 198 194 190 186 186 185 187 190 191 194 196 197 199 199 200 202 203 201 199 198 198 198 199 200 199 197 195 194 193 191 191 192 192 192 193 194 195 196 199 204 209 212 213 214 217 221 224 227 229 231 233 235 237 239 242 245 247 250 251 254 257 259 261 264 265 266 267 269 271 272 271 271 271 271 270 269 270 273 273 275 277 278
218 212 206 197 190 183 183 186 185 188 190 192 195 196 196 198 198 200 204 206 204 200 197 196 196 197 197 196 196 195 193 192 191 190 190 189 190 190 191 194 196 198 203 207 210 213 216 219 221 224 226 228 230 232 235 238 239 242 246 249 252 254 256 258 260 263 264 265 265 266 268 270 270 268 269 270 267 265 266 268 270 271 273 276 277
228 222 208 190 182 183 190 191 191 192 194 194 195 196 197 197 198 200 202 204 204 202 199 197 195 195 194 194 195 194 193 193 191 189 188 187 187 187 189 192 195 198 202 206 209 212 216 220 222 224 226 228 231 234 237 239 242 245 249 253 255 256 258 259 260 262 264 263 261 261 264 265 264 265 266 266 262 259 261 262 263 264 266 269 272
226 218 202 192 190 195 196 195 198 197 196 197 197 197 197 197 198 199 199 199 201 202 201 199 196 194 193 194 194 194 194 193 190 188 186 184 184 185 187 191 195 198 201 204 209 212 216 219 221 224 227 230 232 234 237 241 245 248 250 253 256 258 259 260 261 261 262 262 257 256 262 264 262 263 264 262 259 257 258 258 257 258 258 259 264
221 209 199 200 203 203 201 200 204 203 199 199 199 197 196 196 198 198 198 197 198 199 200 200 198 196 194 194 194 194 194 192 189 186 182 181 181 183 186 189 194 197 200 203 207 210 215 217 220 224 227 230 231 234 238 243 245 247 249 252 254 256 258 260 262 261 260 260 260 262 266 268 267 267 268 266 261 258 257 255 253 253 252 251 253
233 220 206 205 208 205 204 207 205 200 199 200 200 200 199 198 198 196 196 196 195 196 198 198 197 197 196 196 195 194 192 190 187 183 179 178 179 181 185 188 191 196 199 203 206 208 211 214 219 223 226 230 233 236 239 242 243 245 246 248 250 252 256 260 260 259 260 263 268 270 271 272 273 271 269 267 262 259 258 255 251 247 245 245 247
241 240 227 218 218 208 205 212 204 195 197 199 201 201 200 200 198 195 195 195 194 194 195 196 196 197 197 195 192 191 189 187 183 179 176 176 176 179 182 185 190 194 197 201 204 207 209 213 218 222 226 229 232 236 239 242 243 243 242 244 248 253 259 261 259 259 263 268 272 275 274 274 274 271 268 268 268 267 268 268 266 261 252 246 244
228 236 236 229 228 219 213 213 205 199 200 199 200 199 199 199 196 194 194 193 193 193 193 194 195 196 194 190 188 187 185 183 179 176 174 174 174 177 179 183 187 191 194 198 202 205 209 213 217 221 224 226 230 236 241 240 238 239 243 248 254 260 261 260 261 263 266 269 272 274 273 272 272 272 273 275 275 275 275 276 277 275 270 263 257
227 226 231 231 229 227 224 218 210 209 205 201 201 199 197 196 194 193 193 192 191 191 192 193 193 192 189 186 184 183 181 179 176 174 173 172 173 175 178 181 184 187 192 195 199 203 207 213 216 217 219 223 232 240 240 234 231 232 242 251 256 260 261 261 263 265 268 272 273 272 272 272 272 273 275 276 276 276 277 277 278 278 274 271 270
239 226 226 231 231 228 225 219 216 214 207 204 201 194 192 194 193 192 190 188 188 189 190 191 189 187 185 183 181 179 176 176 174 172 172 172 173 175 177 179 182 185 189 192 196 202 205 209 210 211 217 225 233 240 237 233 234 235 241 250 258 261 262 264 266 269 272 275 275 275 275 275 274 273 273 272 272 274 278 279 279 279 277 273 271
251 240 230 232 235 233 228 223 217 212 210 207 200 192 194 195 191 188 185 184 186 188 188 187 186 184 183 181 179 176 174 173 172 171 171 171 172 173 175 178 180 182 186 189 193 198 199 200 204 211 220 227 234 240 236 236 241 244 245 254 262 265 266 269 272 274 274 274 277 279 278 276 275 275 274 273 273 275 277 276 273 273 274 272 269
255 250 240 234 233 234 234 230 221 215 213 209 201 196 196 192 185 182 182 182 185 186 185 184 183 182 180 178 176 173 171 170 170 169 170 170 170 171 173 176 177 179 183 186 188 191 191 195 205 213 221 231 239 243 241 242 245 249 255 262 267 270 273 275 276 276 275 276 280 281 278 276 277 277 275 275 276 278 277 276 274 272 270 269 265
258 260 258 250 242 236 236 235 226 218 209 200 195 193 189 182 180 180 180 182 183 182 182 181 179 178 177 174 172 170 168 167 167 168 168 168 168 169 171 173 176 179 182 184 185 187 189 195 203 211 220 232 241 243 244 248 252 257 264 269 273 277 280 280 279 279 279 281 284 284 281 279 280 280 279 278 280 284 285 285 284 281 277 275 270
259 262 260 253 247 235 231 232 219 204 193 188 189 188 180 176 178 179 178 179 178 178 179 178 176 175 174 173 171 169 167 167 167 167 167 167 168 169 171 173 174 177 179 181 183 184 188 194 200 210 220 230 239 244 245 249 257 264 269 274 279 283 285 284 283 283 285 287 288 286 284 283 284 286 287 288 291 294 295 293 291 289 287 284 279
263 262 256 253 253 241 227 215 193 184 187 187 185 181 174 170 172 173 174 174 175 177 178 177 176 176 175 175 174 170 168 169 170 170 169 170 170 171 172 173 173 174 176 179 181 182 186 192 199 208 218 229 241 242 240 247 260 267 272 279 284 287 288 287 287 288 290 292 292 291 289 290 293 295 296 298 301 301 300 297 293 291 288 283 279
253 255 254 251 245 221 198 189 178 181 190 187 181 177 170 165 167 170 171 173 177 180 180 178 179 178 177 177 176 173 171 172 173 173 171 170 171 171 172 174 174 174 176 177 177 179 183 190 199 207 215 232 244 240 231 251 265 269 275 283 288 290 289 289 290 292 294 295 296 297 297 297 297 299 301 304 306 306 302 297 293 290 286 283 283
238 240 248 240 209 175 167 171 172 182 188 183 179 175 167 164 168 170 172 178 183 185 183 181 181 179 177 178 177 176 175 174 174 173 172 170 170 170 171 173 173 172 171 172 173 176 181 189 200 210 216 229 243 242 229 255 268 274 280 287 292 292 290 291 293 294 297 299 299 299 299 299 299 301 304 306 308 308 305 301 298 294 289 289 293
235 239 239 212 173 159 159 169 180 185 184 181 177 171 167 169 170 172 179 188 190 188 184 181 180 178 178 178 178 178 177 175 173 172 171 170 169 169 168 168 168 167 167 168 171 174 179 189 200 208 208 216 234 246 247 263 272 279 285 290 295 294 291 292 295 298 302 304 302 300 299 300 302 305 307 310 311 311 310 308 304 299 295 296 299
269 263 234 172 155 162 172 185 190 185 180 178 174 171 173 173 171 180 192 194 191 186 181 179 178 177 178 179 180 180 178 175 173 171 169 168 167 167 167 164 163 162 162 163 167 174 182 188 192 199 204 211 226 245 273 274 275 282 289 292 295 295 294 296 301 305 308 306 303 301 300 301 306 310 312 314 315 315 314 312 308 302 299 300 301
354 357 17 82 109 136 158 181 189 184 181 180 176 175 178 175 179 195 197 190 184 181 178 176 176 177 178 178 180 180 178 174 171 169 165 163 163 165 164 161 160 159 159 161 167 175 181 180 181 195 206 210 213 229 256 268 275 286 291 295 297 297 300 305 308 310 309 306 303 300 300 305 312 316 318 318 318 318 319 316 311 307 305 304 305
5 356 346 23 145 177 179 185 188 187 185 182 179 180 181 183 194 199 190 181 180 178 175 174 175 176 176 176 177 178 176 171 168 167 163 159 160 161 160 159 159 157 156 161 167 171 174 177 185 194 199 205 210 222 243 259 275 288 293 298 300 300 305 309 312 312 309 305 301 300 304 312 318 320 321 322 322 321 319 316 314 314 314 313 313
350 319 278 234 224 232 211 191 192 192 190 187 186 185 187 196 202 192 180 175 176 174 172 172 174 174 174 174 174 174 173 169 165 164 161 157 157 157 155 156 159 157 156 160 163 166 172 178 188 193 193 201 210 220 245 262 275 287 295 300 300 302 308 310 311 311 307 302 302 307 314 319 321 323 324 325 324 322 318 317 318 318 318 317 315
314 292 254 231 237 247 221 200 203 202 198 197 196 193 195 205 200 183 175 173 172 170 171 172 173 173 171 171 170 171 171 168 165 164 160 156 155 155 153 155 157 156 155 157 161 168 176 180 187 192 192 196 203 211 238 260 276 286 295 302 303 304 309 311 311 310 305 302 308 316 320 323 325 328 329 328 325 322 320 320 322 322 321 318 312
286 274 241 226 234 235 218 211 213 210 207 207 206 204 206 207 191 179 176 174 171 170 171 171 172 172 170 167 165 166 167 165 164 165 163 160 159 158 155 156 157 155 155 159 163 169 177 182 188 191 190 191 197 205 223 247 278 291 296 304 308 311 314 315 314 310 305 308 317 321 324 327 330 332 331 328 324 322 322 323 324 324 323 318 312
263 254 228 206 203 217 221 220 220 215 212 212 212 211 212 205 187 180 178 174 172 172 171 172 172 170 168 167 165 163 163 162 162 163 162 161 161 160 158 158 158 156 157 162 167 172 178 183 186 187 186 187 187 197 225 247 276 301 305 307 314 320 321 319 318 315 312 317 325 329 330 332 333 332 330 326 324 323 323 324 324 325 324 321 316
254 233 213 197 198 218 222 225 227 219 213 213 214 213 211 200 187 182 178 174 175 175 173 173 172 170 169 169 167 163 161 160 160 161 159 159 160 161 162 164 165 165 164 165 170 176 181 182 182 181 181 183 189 208 235 254 281 312 318 321 328 332 329 326 327 327 326 331 338 341 340 338 337 332 328 326 326 326 326 325 324 325 326 325 323
265 230 210 202 211 220 218 223 232 223 212 212 215 212 206 197 188 182 178 176 177 177 175 173 172 171 171 170 167 164 161 158 158 158 158 159 161 163 163 163 169 174 174 172 172 177 181 182 181 179 177 180 191 212 239 264 302 325 331 338 345 344 338 336 335 335 338 346 351 350 344 340 337 331 327 327 328 329 328 327 326 327 328 328 327
276 249 224 213 216 218 218 227 232 222 212 213 213 208 202 197 190 184 181 179 176 175 175 174 174 174 173 169 166 164 162 158 156 154 152 150 154 161 164 164 166 171 173 172 172 175 179 181 179 180 180 183 190 205 227 342 1 350 348 353 357 355 351 349 346 348 356 360 357 349 342 338 333 329 328 328 329 329 329 328 328 328 329 329 329
283 264 241 234 228 221 222 234 235 224 216 214 210 203 199 196 190 186 184 181 176 173 175 178 179 178 175 170 166 163 161 158 156 154 151 145 142 147 158 165 164 161 162 167 170 174 178 179 177 177 180 186 192 186 139 97 47 16 8 9 10 5 5 4 0 1 6 6 357 344 337 334 331 329 329 328 328 329 328 327 328 328 328 330 329